Other Public Products
Issued by NWS Grand Forks, ND

Home | Current Version | Previous Version | Graphics & Text | Print | Product List | Glossary On
Versions: 1 2 3 4 5 6 7 8 9 10 11 12 13 14 15 16 17 18 19 20 21 22 23 24 25 26 27 28 29 30 31 32 33 34 35 36 37 38 39 40 41 42 43 44 45 46 47 48 49 50
000
FPUS83 KFGF 202231
OPUFGF
PRAIRIE TO PINES WEATHER ROUNDUP
NATIONAL WEATHER SERVICE EASTERN NORTH DAKOTA/GRAND FORKS ND
500 PM CDT THU JUL 20 2017

 **SATELLITE DATA USED TO AUGMENT SKY COVER AT AUTOMATED STATIONS**
 *****  WEATHER ACROSS EASTERN NORTH DAKOTA  *****

CITY           SKY/WX    TMP DP  RH WIND       PRES   REMARKS
GRAND FORKS    FAIR      85  63  47 S8        29.94F
GRAND FORKS AF SUNNY     83  63  50 S9        29.96F
GRAND CITY NWS NOT AVBL
BUXTON         NOT AVBL
DEVILS LAKE    FAIR      85  63  47 SE10      29.94F
FARGO          FAIR      88  65  46 S12       29.94F HX  90
WAHPETON ARPT  FAIR      86  63  45 S12       29.96F
$$

 *****  WEATHER ACROSS CENTRAL AND WESTERN NORTH DAKOTA  *****

CITY           SKY/WX    TMP DP  RH WIND       PRES   REMARKS
JAMESTOWN      FAIR      89  65  44 S13       29.94F HX  91
BISMARCK       FAIR      96  54  24 S16       29.88F HX  94
MINOT          FAIR      83  61  47 NE8       29.88F
MINOT AFB      FAIR      87  65  48 NE9       29.88F
GARRISON         N/A     89  57  33 SE9       29.87F
WILLISTON      FAIR      92  56  29 E16       29.84F HX  90
DICKINSON      FAIR      90  57  32 SE29G37   29.77F THUNDER
HETTINGER      FAIR      97  57  26 S23G33    29.84F HX  96
$$

 *****  OTHER OBSERVATIONS NORTHEAST NORTH DAKOTA  *****

CITY           SKY/WX    TMP DP  RH WIND       PRES   REMARKS
WALHALLA       NOT AVBL
LANGDON        FAIR      79  64  61 E7        29.98F
CAVALIER       FAIR      77  61  57 CALM      29.95F
GRAFTON        FAIR      79  61  53 E6        29.97F
CANDO          NOT AVBL
FORT TOTTEN    NOT AVBL
ROLLA            N/A     75  64  69 SE7       29.98F
RUGBY          NOT AVBL
 ***** THE ABOVE OBSERVATIONS ARE NON NWS ARE NOT QUALITY
        CONTROLLED AND MAY MIS-REPORT RAIN FOR SNOW...
$$

 *****  OTHER OBSERVATIONS SOUTHEAST NORTH DAKOTA *****

CITY           SKY/WX    TMP DP  RH WIND       PRES   REMARKS
COOPERSTOWN    FAIR      84  68  58 SE8G15    29.95F
VALLEY CITY    FAIR      88  64  45 S15       29.96F
OAKES          NOT AVBL
GWINNER        CLEAR     86  63  45 SW8       29.95F
SHEYENNE NWR     N/A     89  69  51 S7        29.95S HX  93
BUFFALO        NOT AVBL
WYNDMERE       NOT AVBL
 ***** THE ABOVE OBSERVATIONS ARE NON NWS ARE NOT QUALITY
       CONTROLLED AND MAY MIS-REPORT RAIN FOR SNOW...
$$

  *****  WEATHER ACROSS NORTHERN MINNESOTA  *****

CITY           SKY/WX    TMP DP  RH WIND       PRES   REMARKS
FLAG ISLAND    FAIR      72  54  53 S6        29.97S
WARROAD        FAIR      77  61  57 SW7       29.98S
ROSEAU         FAIR      77  63  61 CALM      29.97F
HALLOCK        FAIR      79  57  47 CALM      29.95F
THF RVR FALLS  FAIR      80  58  46 CALM      29.99F
HALSTAD          N/A     84  66  54 S6          N/A
FOSSTON        FAIR      84  59  42 CALM      29.98F
BAUDETTE       FAIR      76  52  43 NE5       29.98F
WASKISH        PTSUNNY   81  59  47 SW6       29.97F
CROOKSTON      FAIR      82  59  44 SW3       29.96F
$$
  *****  WEATHER ACROSS CENTRAL AND WEST MINNESOTA  *****

CITY           SKY/WX    TMP DP  RH WIND       PRES   REMARKS
BEMIDJI        FAIR      82  57  41 SW5       29.98F
PARK RAPIDS    FAIR      90  55  30 SW8       29.98F
WADENA         FAIR      84  66  54 S5        29.99F
DETROIT LAKES  FAIR      84  61  45 S6        30.00F
MOORHEAD       FAIR      84  63  48 S7        29.95F
FERGUS FALLS   FAIR      84  70  61 S9        29.96F
ELBOW LAKE     FAIR      84  70  61 SW9       29.99F HAZE
MORRIS MN      FAIR      88  66  48 S8        29.99F HX  90
STAPLES        FAIR      84  61  45 S5        29.99F
WHEATON        FAIR      84  68  58 S7        29.98F
$$
  *****  WEATHER ELSEWHERE ACROSS MINNESOTA  *****

CITY           SKY/WX    TMP DP  RH WIND       PRES   REMARKS
DULUTH         FAIR      83  58  42 W8        29.98F
INTRNTL FALLS  FAIR      75  53  46 W6        29.97S
ELY            FAIR      79  52  38 W8        29.97F
CLOQUET        FAIR      84  59  42 SW7       29.98F
BRAINERD       FAIR      84  61  45 VRB5      30.00F
HIBBING        FAIR      80  56  43 W7        29.98F
ALEXANDRIA     FAIR      84  67  56 SW10      30.03F
SAINT CLOUD    FAIR      85  69  58 SW12      30.00F
MINNEAPOLIS    FAIR      88  66  48 W6        30.00F HX  90
$$

  *****  WEATHER ACROSS SOUTH DAKOTA  *****

CITY           SKY/WX    TMP DP  RH WIND       PRES   REMARKS
SIOUX FALLS    CLOUDY    85  72  65 E13       29.98F HX  91
BROOKINGS      FAIR      87  64  46 SE12      30.01F
WATERTOWN      FAIR      87  60  40 SE10      30.00F
HURON          FAIR      90  68  48 E14       29.94F HX  94
SISSETON         N/A     87  68  52 SE12      29.96F HX  90
ABERDEEN       FAIR      89  64  43 SE12      29.96F HX  90
MITCHELL       FAIR      89  73  59 SE8       29.95F HX  97
PIERRE         NOT AVBL
MOBRIDGE       FAIR      93  56  28 SE21      29.89F HX  91
RAPID CITY     FAIR      97  57  26 S14G23    29.94F HX  96
$$

  *****  SOME WEATHER IN NEARBY STATES *****

CITY           SKY/WX    TMP DP  RH WIND       PRES   REMARKS
GLASGOW MT     NOT AVBL
GREAT FALLS MT FAIR      95  25   8 W22G30    29.84F
CHEYENNE WY    CLOUDY    84  49  29 W18       30.19R THUNDER
SCOTTSBLUFF NE FAIR      92  58  31 E12       30.03F HX  91
OMAHA NE       PTSUNNY   97  73  45 S10       29.91F HX 107
DES MOINES IA  FAIR      99  73  43 VRB5      29.91F HX 109
DAVENPORT IA   FAIR      90  78  68 N3        29.97F HX 104
CHICAGO IL     CLOUDY    83  72  69 E9        29.96R
EAU CLAIRE WI  FAIR      85  66  53 W8        29.99F
LA CROSSE WI   FAIR      86  72  62 NW9       29.98S HX  92
$$

  *****  SOME NATIONAL WEATHER *****

CITY           SKY/WX    TMP DP  RH WIND       PRES   REMARKS
LA GUARDIA NY  PTSUNNY   94  62  34 W14       29.85S HX  94
RALEIGH NC     PTSUNNY   94  66  39 NE7       29.98F HX  97
ATLANTA GA     FAIR      92  70  48 N14G21    30.03F HX  97
NEW ORLEANS LA FAIR      96  71  44 N6        30.02F HX 103
OKLAHOMA CITY  FAIR      99  61  28 S15G22    30.00F HX  99
ALBUQUERQUE NM PTSUNNY   87  50  27 S13G20    30.19F
SALT LAKE CITY PTSUNNY   93  54  26 S14       30.01F HX  91
LOS ANGELES CA FAIR      79  66  64 W15       29.97F
BOISE ID       FAIR      90  41  18 N12G20    30.01F
SEATTLE WA     PTSUNNY   74  52  46 SW15      30.15S
$$

*** WEATHER ACROSS MANITOBA...SASKATCHEWAN AND ONTARIO ***
                ***ONTARIO***

CITY           SKY/WX    TMP DP  RH WIND       PRES   REMARKS
GERALDTON      MOSUNNY   75  48  38 W8        29.86F
THUNDER BAY    MOSUNNY   81  54  39 NW9       29.89F
SIOUX LOOKOUT  MOSUNNY   75  45  33 NW9       29.93F
TORONTO        MOSUNNY   75  63  64 VRB2      29.90F
BIG TROUT LK   PTSUNNY   66  41  39 NW16G26   29.80F
PICKLE LAKE    LGT RAIN  64  54  68 NW12G18   29.89R
DRYDEN         SUNNY     75  46  35 SW8       29.95F
KENORA         PTSUNNY   73  52  46 SW7       29.97F
$$
                *** MANITOBA***

CITY           SKY/WX    TMP DP  RH WIND       PRES   REMARKS
BRANDON        PTSUNNY   79  59  50 S8        29.95S
DAUPHIN        SUNNY     81  63  54 S7        29.91F
ISLAND LAKE    MOSUNNY   70  43  37 NW12G18   29.87F
PILOT MOUND      N/A     75  63  64 SE6         N/A
THE PAS        MOSUNNY   75  45  33 NE3       29.92F
THOMPSON       MOSUNNY   64  37  36 NW8G24    29.93S
WINNIPEG       PTSUNNY   77  57  50 SW5       29.95F
LYNN LAKE      SUNNY     64  37  36 W9G17     29.96F
CHURCHILL      PTSUNNY   52  41  66 N10G17    29.83S
GILLAM         PTSUNNY   61  39  44 NW16G28   29.87F
$$
                ***SASKATCHEWAN***

CITY           SKY/WX    TMP DP  RH WIND       PRES   REMARKS
ESTEVAN        LGT RAIN  72  66  83 NE3       29.97R
KINDERSLEY     CLOUDY    82  55  39 NE7       29.83F
LLOYDMINSTER   CLOUDY    70  57  64 E16       29.89S
PRINCE ALBERT  LGT RAIN  73  63  68 E3        29.91F
REGINA         MOSUNNY   88  52  29 SE16      29.88F
YORKTON        SUNNY     82  52  34 S7        29.92F



USA.gov is the U.S. government's official web portal to all federal, state and local government web resources and services.